PSGAM SBJH-SNLN

Flight info

Callsign PSGAM
Flight time 1h 14m
Altitude 45000
Route DCT REKOG UZ42 CXI UL340 VUPIP UL206 VRI DCT
Aircraft GLF5/M-SBDE2E3FGHIJ4J5M1RWXY/LB1D1

Departure

Time 2026-05-05 16:10
Airport São Paulo Catarina Executive Airport (SBJH)

Arrival

Time 2026-05-05 17:24
Airport Linhares Municipal Airport (SNLN)
Time Latitude Longitude Altitude Speed Heading
2026-05-05 15:49 -23.42830 -47.17589 2563 ft 0 kts 274°
2026-05-05 16:07 -23.42830 -47.17590 2563 ft 0 kts 274°
2026-05-05 16:07 -23.42825 -47.17618 2563 ft 5 kts 307°
2026-05-05 16:08 -23.42794 -47.17651 2563 ft 6 kts 320°
2026-05-05 16:08 -23.42756 -47.17659 2563 ft 10 kts
2026-05-05 16:08 -23.42675 -47.17652 2563 ft 11 kts
2026-05-05 16:08 -23.42626 -47.17646 2566 ft 0 kts 17°
2026-05-05 16:09 -23.42619 -47.17641 2566 ft 0 kts 41°
2026-05-05 16:09 -23.42617 -47.17631 2566 ft 6 kts 77°
2026-05-05 16:09 -23.42617 -47.17614 2566 ft 0 kts 97°
2026-05-05 16:10 -23.42629 -47.17355 2567 ft 80 kts 97°
2026-05-05 16:10 -23.42694 -47.16423 2599 ft 157 kts 93°
2026-05-05 16:10 -23.42771 -47.15162 3246 ft 178 kts 91°
2026-05-05 16:10 -23.42557 -47.13844 4251 ft 188 kts 68°
2026-05-05 16:11 -23.41962 -47.12533 5178 ft 201 kts 62°
2026-05-05 16:11 -23.39921 -47.07190 7891 ft 276 kts 70°
2026-05-05 16:12 -23.39322 -47.05209 9121 ft 284 kts 72°
2026-05-05 16:12 -23.38147 -47.01069 11649 ft 297 kts 74°
2026-05-05 16:13 -23.36323 -46.94398 15101 ft 318 kts 75°
2026-05-05 16:13 -23.35694 -46.92083 16278 ft 324 kts 75°
2026-05-05 16:13 -23.35053 -46.89727 17468 ft 330 kts 75°
2026-05-05 16:14 -23.33727 -46.84844 19726 ft 345 kts 75°
2026-05-05 16:14 -23.32340 -46.79752 22009 ft 361 kts 74°
2026-05-05 16:15 -23.30888 -46.74431 24235 ft 377 kts 75°
2026-05-05 16:15 -23.29459 -46.68800 26319 ft 392 kts 86°
2026-05-05 16:16 -23.30750 -46.63154 28326 ft 394 kts 117°
2026-05-05 16:16 -23.33009 -46.57566 30221 ft 409 kts 117°
2026-05-05 16:17 -23.35334 -46.51788 32073 ft 421 kts 118°
2026-05-05 16:17 -23.36506 -46.48873 32896 ft 426 kts 118°
2026-05-05 16:18 -23.38914 -46.42874 34422 ft 437 kts 119°
2026-05-05 16:18 -23.40103 -46.39825 35083 ft 446 kts 114°
2026-05-05 16:18 -23.40591 -46.34544 35995 ft 467 kts 92°
2026-05-05 16:19 -23.40511 -46.30991 36758 ft 469 kts 92°
2026-05-05 16:19 -23.40441 -46.27430 37581 ft 469 kts 93°
2026-05-05 16:19 -23.40308 -46.20322 39169 ft 469 kts 93°
2026-05-05 16:20 -23.40178 -46.13214 40531 ft 471 kts 94°
2026-05-05 16:20 -23.40045 -46.06092 41926 ft 470 kts 94°
2026-05-05 16:21 -23.39910 -45.98999 43137 ft 470 kts 94°
2026-05-05 16:22 -23.39700 -45.88360 44728 ft 471 kts 94°
2026-05-05 16:22 -23.39558 -45.81200 45255 ft 482 kts 94°
2026-05-05 16:23 -23.39403 -45.73728 45273 ft 504 kts 94°
2026-05-05 16:23 -23.39322 -45.69859 45269 ft 515 kts 94°
2026-05-05 16:23 -23.39152 -45.61947 45265 ft 531 kts 94°
2026-05-05 16:24 -23.38974 -45.53912 45263 ft 535 kts 94°
2026-05-05 16:24 -23.37777 -45.45966 45247 ft 533 kts 81°
2026-05-05 16:25 -23.36933 -45.42015 45261 ft 532 kts 81°
2026-05-05 16:25 -23.34416 -45.30243 45247 ft 535 kts 81°
2026-05-05 16:26 -23.31027 -45.14466 45255 ft 535 kts 81°
2026-05-05 16:27 -23.29652 -45.08092 45260 ft 535 kts 81°
2026-05-05 16:27 -23.28017 -45.00521 45275 ft 534 kts 81°
2026-05-05 16:28 -23.27120 -44.96379 45272 ft 534 kts 81°
2026-05-05 16:28 -23.26025 -44.91328 45260 ft 534 kts 81°
2026-05-05 16:29 -23.24319 -44.83479 45236 ft 533 kts 81°
2026-05-05 16:29 -23.22627 -44.75709 45207 ft 532 kts 80°
2026-05-05 16:30 -23.20919 -44.67885 45191 ft 531 kts 80°
2026-05-05 16:30 -23.19206 -44.60061 45179 ft 532 kts 80°
2026-05-05 16:31 -23.17500 -44.52294 45160 ft 531 kts 81°
2026-05-05 16:31 -23.15782 -44.44487 45153 ft 530 kts 80°
2026-05-05 16:32 -23.14077 -44.36754 45149 ft 530 kts 80°
2026-05-05 16:32 -23.12352 -44.28959 45136 ft 530 kts 79°
2026-05-05 16:33 -23.10632 -44.21200 45125 ft 529 kts 79°
2026-05-05 16:33 -23.08914 -44.13466 45123 ft 529 kts 79°
2026-05-05 16:34 -23.07185 -44.05705 45116 ft 530 kts 79°
2026-05-05 16:34 -23.05460 -43.97977 45120 ft 529 kts 79°
2026-05-05 16:35 -23.03744 -43.90275 45118 ft 527 kts 79°
2026-05-05 16:35 -23.02004 -43.82547 45123 ft 526 kts 79°
2026-05-05 16:36 -23.00273 -43.74867 45123 ft 526 kts 79°
2026-05-05 16:36 -22.98013 -43.67317 45162 ft 528 kts 69°
2026-05-05 16:37 -22.95129 -43.60010 45154 ft 529 kts 69°
2026-05-05 16:37 -22.92235 -43.52663 45136 ft 529 kts 69°
2026-05-05 16:38 -22.89354 -43.45355 45135 ft 528 kts 69°
2026-05-05 16:38 -22.86465 -43.38039 45142 ft 528 kts 69°
2026-05-05 16:39 -22.83582 -43.30750 45128 ft 528 kts 68°
2026-05-05 16:39 -22.81730 -43.23206 45176 ft 516 kts 92°
2026-05-05 16:40 -22.81705 -43.15438 45130 ft 518 kts 94°
2026-05-05 16:40 -22.81697 -43.07604 45123 ft 517 kts 94°
2026-05-05 16:41 -22.81686 -42.99860 45128 ft 515 kts 94°
2026-05-05 16:41 -22.81671 -42.92130 45134 ft 515 kts 94°
2026-05-05 16:42 -22.81652 -42.84361 45125 ft 517 kts 93°
2026-05-05 16:42 -22.81629 -42.76620 45139 ft 515 kts 93°
2026-05-05 16:43 -22.81603 -42.68868 45136 ft 515 kts 93°
2026-05-05 16:43 -22.81336 -42.64982 45119 ft 519 kts 79°
2026-05-05 16:43 -22.80057 -42.61349 45178 ft 523 kts 62°
2026-05-05 16:44 -22.76142 -42.54662 45139 ft 526 kts 58°
2026-05-05 16:44 -22.72170 -42.48027 45151 ft 525 kts 58°
2026-05-05 16:45 -22.68204 -42.41417 45149 ft 524 kts 58°
2026-05-05 16:45 -22.64230 -42.34801 45158 ft 524 kts 57°
2026-05-05 16:46 -22.60254 -42.28193 45151 ft 525 kts 57°
2026-05-05 16:46 -22.58126 -42.25039 45124 ft 524 kts 45°
2026-05-05 16:46 -22.55406 -42.22398 45180 ft 524 kts 38°
2026-05-05 16:47 -22.49777 -42.17318 45140 ft 526 kts 38°
2026-05-05 16:47 -22.44205 -42.12302 45163 ft 523 kts 38°
2026-05-05 16:48 -22.38607 -42.07269 45182 ft 523 kts 38°
2026-05-05 16:48 -22.33006 -42.02238 45183 ft 522 kts 38°
2026-05-05 16:49 -22.27436 -41.97242 45174 ft 522 kts 38°
2026-05-05 16:49 -22.21835 -41.92222 45181 ft 522 kts 38°
2026-05-05 16:50 -22.16263 -41.87233 45187 ft 522 kts 38°
2026-05-05 16:50 -22.10656 -41.82219 45174 ft 522 kts 38°
2026-05-05 16:51 -22.05058 -41.77216 45173 ft 522 kts 38°
2026-05-05 16:51 -21.99478 -41.72234 45177 ft 523 kts 38°
2026-05-05 16:52 -21.93872 -41.67235 45194 ft 523 kts 38°
2026-05-05 16:52 -21.88281 -41.62257 45192 ft 523 kts 38°
2026-05-05 16:53 -21.82663 -41.57261 45194 ft 521 kts 38°
2026-05-05 16:53 -21.77084 -41.52305 45189 ft 522 kts 38°
2026-05-05 16:54 -21.74300 -41.49832 45019 ft 518 kts 38°
2026-05-05 16:54 -21.71495 -41.47343 44459 ft 510 kts 38°
2026-05-05 16:54 -21.68791 -41.44945 43913 ft 502 kts 38°
2026-05-05 16:54 -21.66138 -41.42593 43373 ft 494 kts 38°
2026-05-05 16:55 -21.63482 -41.40240 42836 ft 486 kts 38°
2026-05-05 16:55 -21.60904 -41.37955 42301 ft 479 kts 38°
2026-05-05 16:55 -21.58370 -41.35710 41779 ft 472 kts 38°
2026-05-05 16:55 -21.55924 -41.33544 41269 ft 465 kts 38°
2026-05-05 16:56 -21.53478 -41.31381 40769 ft 457 kts 37°
2026-05-05 16:56 -21.51015 -41.29201 40253 ft 450 kts 38°
2026-05-05 16:56 -21.48629 -41.27092 39765 ft 443 kts 38°
2026-05-05 16:56 -21.46282 -41.25017 39283 ft 436 kts 38°
2026-05-05 16:57 -21.43938 -41.22945 38808 ft 431 kts 37°
2026-05-05 16:57 -21.41655 -41.20930 38347 ft 429 kts 38°
2026-05-05 16:57 -21.39324 -41.18872 37870 ft 431 kts 38°
2026-05-05 16:57 -21.37009 -41.16830 37403 ft 433 kts 38°
2026-05-05 16:58 -21.34689 -41.14782 36919 ft 434 kts 38°
2026-05-05 16:58 -21.32370 -41.12738 36440 ft 434 kts 38°
2026-05-05 16:58 -21.30014 -41.10662 35953 ft 434 kts 38°
2026-05-05 16:58 -21.27698 -41.08624 35476 ft 434 kts 38°
2026-05-05 16:59 -21.25373 -41.06578 34999 ft 435 kts 38°
2026-05-05 16:59 -21.23012 -41.04501 34513 ft 436 kts 38°
2026-05-05 16:59 -21.20661 -41.02434 34029 ft 437 kts 38°
2026-05-05 16:59 -21.18314 -41.00372 33547 ft 438 kts 38°
2026-05-05 17:00 -21.15948 -40.98295 33073 ft 439 kts 38°
2026-05-05 17:00 -21.13584 -40.96220 32597 ft 440 kts 38°
2026-05-05 17:00 -21.11229 -40.94153 32112 ft 440 kts 38°
2026-05-05 17:00 -21.08852 -40.92068 31621 ft 440 kts 39°
2026-05-05 17:01 -21.06476 -40.89984 31134 ft 441 kts 39°
2026-05-05 17:01 -21.04145 -40.87941 30648 ft 435 kts 39°
2026-05-05 17:01 -21.01825 -40.85908 30165 ft 427 kts 39°
2026-05-05 17:01 -20.99549 -40.83914 29701 ft 419 kts 39°
2026-05-05 17:02 -20.97316 -40.81960 29245 ft 412 kts 39°
2026-05-05 17:02 -20.95110 -40.80030 28804 ft 410 kts 39°
2026-05-05 17:02 -20.92900 -40.78096 28357 ft 408 kts 39°
2026-05-05 17:02 -20.90704 -40.76176 27911 ft 406 kts 39°
2026-05-05 17:03 -20.88518 -40.74265 27462 ft 403 kts 39°
2026-05-05 17:03 -20.86356 -40.72377 27019 ft 399 kts 39°
2026-05-05 17:03 -20.84202 -40.70495 26577 ft 396 kts 39°
2026-05-05 17:03 -20.82071 -40.68634 26142 ft 393 kts 39°
2026-05-05 17:04 -20.79924 -40.66879 25709 ft 389 kts 34°
2026-05-05 17:04 -20.77684 -40.65283 25288 ft 387 kts 33°
2026-05-05 17:04 -20.75464 -40.63701 24862 ft 385 kts 33°
2026-05-05 17:04 -20.73228 -40.62105 24437 ft 382 kts 34°
2026-05-05 17:05 -20.71038 -40.60542 24014 ft 379 kts 34°
2026-05-05 17:05 -20.68851 -40.58981 23595 ft 377 kts 34°
2026-05-05 17:05 -20.66656 -40.57415 23177 ft 374 kts 34°
2026-05-05 17:05 -20.64522 -40.55893 22768 ft 371 kts 34°
2026-05-05 17:06 -20.62380 -40.54364 22362 ft 369 kts 34°
2026-05-05 17:06 -20.60268 -40.52858 21960 ft 366 kts 33°
2026-05-05 17:06 -20.58148 -40.51347 21555 ft 363 kts 33°
2026-05-05 17:06 -20.56059 -40.49860 21153 ft 360 kts 33°
2026-05-05 17:07 -20.53979 -40.48378 20756 ft 357 kts 33°
2026-05-05 17:07 -20.51907 -40.46903 20365 ft 355 kts 33°
2026-05-05 17:07 -20.49861 -40.45446 19978 ft 353 kts 33°
2026-05-05 17:07 -20.47810 -40.43987 19583 ft 350 kts 33°
2026-05-05 17:08 -20.45773 -40.42538 19190 ft 348 kts 33°
2026-05-05 17:08 -20.43759 -40.41106 18814 ft 345 kts 33°
2026-05-05 17:08 -20.41746 -40.39676 18430 ft 342 kts 33°
2026-05-05 17:08 -20.39774 -40.38274 18052 ft 340 kts 33°
2026-05-05 17:09 -20.37822 -40.36887 17680 ft 338 kts 33°
2026-05-05 17:09 -20.35854 -40.35490 17305 ft 336 kts 33°
2026-05-05 17:09 -20.33914 -40.34113 16936 ft 333 kts 32°
2026-05-05 17:09 -20.31996 -40.32753 16541 ft 330 kts 32°
2026-05-05 17:10 -20.30088 -40.31398 16159 ft 327 kts 32°
2026-05-05 17:10 -20.28196 -40.30056 15794 ft 324 kts 32°
2026-05-05 17:10 -20.26299 -40.28801 15422 ft 320 kts 22°
2026-05-05 17:10 -20.24153 -40.28269 15095 ft 317 kts
2026-05-05 17:11 -20.21952 -40.27970 14731 ft 316 kts
2026-05-05 17:11 -20.19766 -40.27677 14375 ft 313 kts
2026-05-05 17:11 -20.17621 -40.27391 14027 ft 311 kts
2026-05-05 17:11 -20.15477 -40.27107 13680 ft 309 kts
2026-05-05 17:12 -20.13357 -40.26826 13344 ft 307 kts
2026-05-05 17:12 -20.11226 -40.26544 13004 ft 305 kts
2026-05-05 17:12 -20.09112 -40.26265 12657 ft 303 kts
2026-05-05 17:12 -20.07020 -40.25988 12318 ft 302 kts
2026-05-05 17:13 -20.04941 -40.25713 11992 ft 299 kts
2026-05-05 17:13 -20.02853 -40.25437 11655 ft 298 kts
2026-05-05 17:13 -20.00801 -40.25166 11324 ft 297 kts
2026-05-05 17:13 -19.98722 -40.24891 10975 ft 295 kts
2026-05-05 17:14 -19.96693 -40.24623 10658 ft 294 kts
2026-05-05 17:14 -19.94653 -40.24354 10339 ft 293 kts
2026-05-05 17:14 -19.92628 -40.24087 10019 ft 291 kts
2026-05-05 17:14 -19.90602 -40.23819 9676 ft 290 kts
2026-05-05 17:15 -19.88588 -40.23553 9354 ft 289 kts
2026-05-05 17:15 -19.86588 -40.23289 9020 ft 288 kts
2026-05-05 17:15 -19.84601 -40.23027 8723 ft 287 kts
2026-05-05 17:15 -19.82638 -40.22768 8390 ft 285 kts
2026-05-05 17:16 -19.80627 -40.22503 8076 ft 284 kts
2026-05-05 17:16 -19.78674 -40.22245 7747 ft 283 kts
2026-05-05 17:16 -19.76712 -40.21986 7437 ft 281 kts
2026-05-05 17:16 -19.74767 -40.21729 7138 ft 281 kts
2026-05-05 17:17 -19.72820 -40.21473 6818 ft 279 kts
2026-05-05 17:17 -19.70883 -40.21218 6496 ft 278 kts
2026-05-05 17:17 -19.68959 -40.20965 6182 ft 277 kts
2026-05-05 17:17 -19.67043 -40.20713 5892 ft 277 kts
2026-05-05 17:18 -19.65143 -40.20462 5588 ft 276 kts
2026-05-05 17:18 -19.63218 -40.20209 5272 ft 274 kts
2026-05-05 17:18 -19.61322 -40.19960 4903 ft 274 kts
2026-05-05 17:18 -19.59421 -40.19709 4539 ft 271 kts
2026-05-05 17:19 -19.57698 -40.19109 4358 ft 255 kts 28°
2026-05-05 17:19 -19.56144 -40.18272 4280 ft 242 kts 29°
2026-05-05 17:19 -19.54656 -40.17468 4039 ft 238 kts 29°
2026-05-05 17:19 -19.53162 -40.16660 3740 ft 238 kts 29°
2026-05-05 17:20 -19.51689 -40.15864 3411 ft 235 kts 30°
2026-05-05 17:20 -19.50298 -40.15114 3200 ft 216 kts 30°
2026-05-05 17:20 -19.48997 -40.14411 2878 ft 197 kts 30°
2026-05-05 17:20 -19.47855 -40.13797 2592 ft 167 kts 31°
2026-05-05 17:21 -19.46913 -40.13290 2395 ft 143 kts 31°
2026-05-05 17:21 -19.46035 -40.12813 2207 ft 140 kts 32°
2026-05-05 17:21 -19.45163 -40.12339 2030 ft 141 kts 32°
2026-05-05 17:22 -19.43395 -40.11383 1652 ft 140 kts 31°
2026-05-05 17:22 -19.42518 -40.10908 1464 ft 140 kts 31°
2026-05-05 17:22 -19.41661 -40.10445 1282 ft 140 kts 31°
2026-05-05 17:22 -19.40774 -40.09967 1092 ft 141 kts 31°
2026-05-05 17:23 -19.39923 -40.09507 891 ft 133 kts 31°
2026-05-05 17:23 -19.39103 -40.09064 721 ft 130 kts 31°
2026-05-05 17:23 -19.38286 -40.08624 556 ft 131 kts 31°
2026-05-05 17:23 -19.37462 -40.08179 382 ft 134 kts 30°
2026-05-05 17:24 -19.36631 -40.07733 240 ft 134 kts 31°
2026-05-05 17:24 -19.35832 -40.07299 138 ft 120 kts 31°
2026-05-05 17:24 -19.35316 -40.07021 127 ft 9 kts 28°
2026-05-05 17:24 -19.35317 -40.06951 128 ft 13 kts 166°
2026-05-05 17:25 -19.35405 -40.06929 129 ft 11 kts 161°
2026-05-05 17:25 -19.35462 -40.06908 130 ft 15 kts 162°
2026-05-05 17:25 -19.35611 -40.06930 132 ft 16 kts 207°
2026-05-05 17:25 -19.35694 -40.06968 133 ft 7 kts 185°
2026-05-05 17:26 -19.35735 -40.06956 132 ft 4 kts 153°
2026-05-05 17:26 -19.35741 -40.06953 132 ft 0 kts 155°